Weather History for Sidney, NE

Change the Weather History Date:

Tuesday, February 19, 2013

  Actual Average Record
Temperature  
Mean Temperature 22 °F 33 °F  
Max Temperature 42 °F 46 °F 70 °F (1986)
Min Temperature 2 °F 20 °F -11 °F (2006)
Degree Days  
Heating Degree Days 43 32  
Month to date heating degree days 642 647  
Since 1 July heating degree days 4345 4304  
Cooling Degree Days 0 0  
Month to date cooling degree days 0 0  
Year to date cooling degree days 0 0  
Moisture  
Dew Point 11 °F    
Average Humidity 65    
Maximum Humidity 92    
Minimum Humidity 37    
Precipitation  
Precipitation 0.00 in 0.02 in 0.71 in (1953)
Month to date precipitation 0.01 0.18  
Year to date precipitation 0.18 0.38  
Sea Level Pressure  
Sea Level Pressure 30.14 in    
Wind  
Wind Speed 14 mph (SSE)    
Max Wind Speed 26 mph    
Max Gust Speed 33 mph    
Visibility 10 miles    
Events      
T = Trace of Precipitation, MM = Missing Value Source: NWS Daily Summary

Daily Weather History Graph

Daily Weather History Graph

Search for Another Location

Airport:

Trip Planner

Search our weather history database for the weather conditions in past years. The results will help you decide how hot, cold, wet, or windy it might be!

Date:

Astronomy

Feb. 19, 2013 Rise Set
Actual Time 6:40 AM MST 5:31 PM MST
Civil Twilight 6:12 AM MST 5:59 PM MST
Nautical Twilight 5:40 AM MST 6:31 PM MST
Astronomical Twilight 5:08 AM MST 7:03 PM MST
Moon 12:03 PM MST (2/19) 2:15 AM MST (2/19)
Length of Visible Light 11h 46m
Length of Day
10h 50m
Waxing Gibbous, 68% of the Moon is Illuminated
Feb 19
Waxing Gibbous
Feb 25
Full
Mar 4
Last Quarter
Mar 11
New
Mar 19
First Quarter

Hourly Weather History & Observations

Time (MST) Temp. Windchill Dew Point Humidity Pressure Visibility Wind Dir Wind Speed Gust Speed Precip Events Conditions
1:53 AM 10.9 °F -2.6 °F 7.0 °F 84% 30.23 in 10.0 mi WSW 10.4 mph - N/A   Clear
2:53 AM 9.0 °F -0.9 °F 5.0 °F 84% 30.24 in 10.0 mi West 5.8 mph - N/A   Clear
3:53 AM 6.1 °F -2.8 °F 1.9 °F 83% 30.24 in 10.0 mi WNW 4.6 mph - N/A   Clear
4:53 AM 5.0 °F -2.1 °F 1.0 °F 84% 30.25 in 10.0 mi WNW 3.5 mph - N/A   Clear
5:53 AM 3.0 °F -4.4 °F -0.9 °F 84% 30.26 in 10.0 mi West 3.5 mph - N/A   Clear
6:39 AM 6.8 °F - 3.2 °F 85% 30.08 in 10.0 mi Calm Calm - N/A   Scattered Clouds
6:48 AM 5.0 °F -2.1 °F 1.4 °F 85% 30.09 in 10.0 mi SW 3.5 mph - N/A   Mostly Cloudy
6:53 AM 7.0 °F - 3.0 °F 84% 30.27 in 10.0 mi Calm Calm - N/A   Mostly Cloudy
7:20 AM 10.4 °F - 6.8 °F 85% 30.09 in 10.0 mi Calm Calm - N/A   Scattered Clouds
7:53 AM 18.0 °F - 15.1 °F 88% 30.26 in 10.0 mi Calm Calm - N/A   Clear
8:53 AM 25.0 °F 14.8 °F 18.0 °F 75% 30.25 in 10.0 mi SSE 10.4 mph - N/A   Clear
9:53 AM 27.0 °F 15.2 °F 16.0 °F 63% 30.22 in 10.0 mi SSE 15.0 mph - N/A   Clear
11:53 AM 36.0 °F 25.3 °F 17.1 °F 46% 30.15 in 10.0 mi SSE 19.6 mph 25.3 mph N/A   Clear
12:53 PM 37.0 °F 26.7 °F 17.1 °F 44% 30.12 in 10.0 mi SSE 19.6 mph 25.3 mph N/A   Clear
1:53 PM 39.0 °F 29.3 °F 17.1 °F 41% 30.09 in 10.0 mi SSE 19.6 mph 31.1 mph N/A   Clear
2:53 PM 41.0 °F 32.2 °F 17.1 °F 38% 30.07 in 10.0 mi SSE 18.4 mph 29.9 mph N/A   Clear
3:53 PM 39.9 °F 29.7 °F 16.0 °F 38% 30.07 in 10.0 mi SSE 23.0 mph 33.4 mph N/A   Clear
5:53 PM 30.9 °F 20.7 °F 15.1 °F 52% 30.11 in 10.0 mi SE 13.8 mph - N/A   Clear
6:53 PM 28.9 °F 16.9 °F 15.1 °F 56% 30.11 in 10.0 mi SE 17.3 mph - N/A   Clear
7:53 PM 28.0 °F 15.3 °F 15.1 °F 58% 30.07 in 10.0 mi SE 18.4 mph - N/A   Clear
8:53 PM 26.1 °F 13.1 °F 14.0 °F 60% 30.07 in 10.0 mi SE 17.3 mph - N/A   Clear
9:53 PM 24.1 °F 11.0 °F 14.0 °F 65% 30.06 in 10.0 mi SE 16.1 mph - N/A   Clear
10:53 PM 21.0 °F 5.4 °F 12.0 °F 68% 30.04 in 10.0 mi SE 20.7 mph 25.3 mph N/A   Clear
11:53 PM 19.9 °F 2.8 °F 12.0 °F 71% 30.01 in 10.0 mi SE 24.2 mph 32.2 mph N/A   Clear